Погода в Охе

Погода в Охе : погода сейчас, прогноз погоды и архив. Всё, что Вы хотите узнать о погоде в Охе!

Хотите узнать прогноз погоды в Охе? Тогда Вам сюда: Погода в Охе

Поиск расширенной информации на нашем сайте:

Другие новости

Новости СМИ2

Главная страница сайта

Новости сайта

03.07.2017

Напоминаем, что на нашем специализированном сайте Метеоцентр.Азия вы можете получить высокодетализированные автоматические прогнозы погоды по пунктам России, СНГ и мира в авиационном формате (включающие направление и скорость ветра, видимость, явления погоды, количество и форму облачности, нижнюю и верхнюю границу облачности).


Погода в Охе - сегодня

Время (UTC), дата Ветер
(°,м/с) 
Видим.   Явления Облачность Т
(°С)
Тd
(°С)
f(%) Тe
(°С)
Pmin
(гПа)
dP
(гПа)
Po
(мм)
O2
(г/м3)
Тmin Tmax R s Состояние
почвы
06 15.10.17 260 (З) 4-7{08}  20000 м  {ливн. осадки}  9/6 330 м кучево-дожд., средняя 
[Cb cap|Ac trans]
+2.9 -1.4 73 +1  1014.9  0.4  758  302           
09 15.10.17 260 (З) 2-3{08}  4000 м  слаб. ливневой снег  9/9 270 м кучево-дожд. 
[Cb cap]
-0.1 -0.1 100 -1  1016.2  1.2  759  306    +3.5  0.5     
12 15.10.17 230 (ЮЗ) 3-5{07}  20000 м  {ливн. осадки}  8/4 300 м кучево-дожд., средняя 
[Cb cap|Ac trans]
-0.5 -0.8 98 -2  1015.9  -0.3  758  306           
18 15.10.17 240 (ЮЗ) 3-5{08}  20000 м  {ливн. осадки}  8/4 300 м кучево-дожд., средняя 
[Cb cap|Ac trans]
-0.5 -1 96 -2  1014.5  -1  757  306           
21 15.10.17 240 (ЮЗ) 1-2{10}  4000 м  слаб. ливневой снег  8/8 300 м кучево-дожд. 
[Cb cap]
-0.7 -0.7 100 1014.7  0.2  757  306  -2.1    равномерный
мокрый или
старый снег
100% 
00 16.10.17 290 (З) 2-4{04}  20000 м  {ливн. осадки}  6/4 300 м кучево-дожд., средняя 
[Cb cap|Ac trans]
+0.8 -2.9 76 1015.1  0.4  758  305           
06 16.10.17 250 (З) 4-6{09}  4000 м  слаб. ливневой снег  10/10 180 м кучево-дожд. 
[Cb cap]
-0.3 -0.5 99 -3  1014.4  -0.1  757  305           
09 16.10.17 290 (З) 1-3{06}  20000 м  {ливн. осадки}  9/9 450 м кучево-дожд. 
[Cb cap]
-0.6 -2 90 1015  0.6  758  306    +2.5     
12 16.10.17 250 (З) 3-5{07}  4000 м  слаб. ливневой снег  10/10 300 м кучево-дожд. 
[Cb cap]
-1.1 -1.1 100 -3  1014.8  -0.3  758  307           
18 16.10.17 230 (ЮЗ) 3-4{07}  4000 м  слаб. ливневой снег  10/10 210 м кучево-дожд. 
[Cb cap]
-1.6 -1.6 100 -4  1013.8  -0.4  757  307           
21 16.10.17 240 (ЮЗ) 3-5{06}  20000 м  {ливн. осадки}  8/8 330 м кучево-дожд. 
[Cb cap]
-2.6 -2.6 100 -5  1014  0.1  757  308  -2.7    равномерный
мокрый или
старый снег
100% 
00 17.10.17 260 (З) 3-4{06}  20000 м  {ливн. осадки}  8/8 400 м кучево-дожд. 
[Cb cap]
+1.6 -1.2 82 1014.5  0.7  757  304           
06 17.10.17 270 (З) 3-4{07}  2000 м  слаб. ливневой снег  10/10 150 м кучево-дожд. 
[Cb cap]
-1.2 -1.2 100 -3  1015.8  0.9  758  307           
09 17.10.17 230 (ЮЗ) 3-4{05}  20000 м  в посл. час ливневой снег  6/6 300 м кучево-дожд. 
[Cb cap]
-2.2 -2.2 100 -4  1016.9  759  309    +1.9     
12 17.10.17 230 (ЮЗ) 4-5{06}  20000 м  {ливн. осадки}  4/4 300 м кучево-дожд. 
[Cb cap]
-2.7 -2.7 100 -6  1016.9  759  309           
18 17.10.17 290 (З) 4-6{11}  20000 м  {ливн. осадки}  8/8 330 м кучево-дожд. 
[Cb cap]
+0 -0.1 99 -2  1016.9  0.4  759  306           
21 17.10.17 330 (СЗ) 1-2{11}  20000 м  {ливн. осадки}  8/8 400 м кучево-дожд. 
[Cb cap]
-1.9 -1.9 100 -1  1018.3  1.4  760  309  -2.8    10  равномерный
мокрый или
старый снег
100% 
00 18.10.17 310 (СЗ) 3-6{08}  20000 м  в посл. час ливневой снег  5/5 300 м кучево-дожд. 
[Cb cap]
+0.5 -0.6 92 -1  1019.2  0.9  761  306  -3.6         
06 18.10.17 310 (СЗ) 7-11{14}  20000 м  {ливн. осадки}  5/5 300 м кучево-дожд. 
[Cb cap]
+2 -1.6 77 -1  1020.5  0.9  762  305           
09 18.10.17 290 (З) 3-4{11}  20000 м  в посл. час ливневой снег  9/9 500 м кучево-дожд. 
[Cb cap]
+0.8 -1.4 85 -1  1021.4  0.9  762  306    +3.3  0.7     
12 18.10.17 290 (З) 2-4{10}  20000 м  {ливн. осадки}  4/4 300 м кучево-дожд. 
[Cb cap]
-0.2 -1.5 91 -1  1021.7  0.3  763  308           
18 18.10.17 290 (З) 2-3{06}  20000 м    5/5 300 м кучево-дожд. 
[Cb cap]
-1 -1.1 99 -2  1021.6  763  309           
21 18.10.17 240 (ЮЗ) 3-5{05}  20000 м    5/5 600 м кучево-дожд. 
[Cb cap]
-2.2 -2.2 100 -4  1021.8  0.1  763  310  -2.3    равномерный
мокрый или
старый снег
100% 
00 19.10.17 260 (З) 2-4{05}  20000 м  {ливн. осадки}  3/3 300 м кучево-дожд. 
[Cb cap]
+1.6 +0.2 90 +1  1021.8  0.1  763  306           
06 19.10.17 260 (З) 4-6{08}  20000 м  {ливн. осадки}  3/3 600 м кучево-дожд. 
[Cb cap]
+2.8 -2.6 68 +1  1021.4  -0.1  762  304           
Время (UTC), дата Ветер
(°,м/с) 
Видим.   Явления Облачность Т
(°С)
Тd
(°С)
f(%) Тe
(°С)
Pmin
(гПа)
dP
(гПа)
Po
(мм)
O2
(г/м3)
Тmin Tmax R s Состояние
почвы

Для получения пояснительной информации подведите курсор к названию столбца.

ПОГОДА в Охе - архив

Всё, что Вы хотите узнать о погоде в Охе - удобно и подробно!

Выберите нужную дату (начиная с 1 января 2015* года) и нажмите кнопку "Найти".
Будут отображены архивные сводки погоды по пункту Оха, начиная с указанной даты.


Отображать данные в формате CSV (для использования в таблицах Excel)


Внимание! Наш архив погоды предназначен исключительно для личного некоммерческого использования в познавательных целях. Если Вам необходимы официальные справки о состоянии погоды (для производственных, юридических, коммерческих и т.п. целей), обращайтесь в органы Росгидромета.

*Примечание: данная дата относится к архиву по метеостанциям СССР (Россия, СНГ, Балтия).
Архив по метеостанциям Зарубежной Европы и Азии (кроме Китая) хранится 10 дней, по другим регионам земного шара (Китай, Африка, Америка, Австралия, Океания) - 1 день.

Оха - район местоположения метеостанции


Название, широта, долгота, высота метеостанции:
Оха 53.6°ш. 142.9°д. 8 м над ур. моря [Российская Федерация]

Дополнительная информация

В oтличие oт бoльшинства пoгoдных сайтoв мы публикуем пoдрoбную метеoинфoрмацию в детальнoм прoфессиoнальнoм фoрмате.

Характеристики температуры и влажнoсти вoздуха измеряются на высoте 2 м в тени вдали oт зданий и деревьев.
Скoрoсть ветра измеряется на высoте 10 м (на урoвне рoста челoвека скoрoсть ветра ниже в 1.5-2 раза). Если метеoстанция нахoдится в гoрoде или в лесу, тo скoрoсть ветра занижена на 2-4 м/с пo сравнению с oткрытым местoм. Скoрoсть ветра над акватoриями крупных рек и oзёр, а также на вершинах хoлмoв на 2-5 м/с выше, чем в oбычных услoвиях.
Атмoсфернoе давление в разных тoчках местнoсти мoжет значительнo oтличаться oт давления на метеoстанции, в зависимoсти oт услoвий рельефа (при пoдъёме на 10 м давление пoнижается примернo на 1 мм рт.ст.).